TimeEDT,TemperatureF,Dew PointF,Humidity,Sea Level PressureIn,VisibilityMPH,Wind Direction,Wind SpeedMPH,Gust SpeedMPH,PrecipitationIn,Events,Conditions,WindDirDegrees,DateUTC
12:53 AM,66.9,61.0,81,29.86,9.0,West,4.6,-,N/A,,Clear,270,2013-06-12 04:53:00
1:53 AM,64.9,60.1,84,29.86,8.0,West,3.5,-,N/A,,Clear,260,2013-06-12 05:53:00
2:53 AM,61.0,57.9,90,29.86,4.0,Calm,Calm,-,N/A,,Clear,0,2013-06-12 06:53:00
3:44 AM,60.8,57.2,88,29.87,2.0,WSW,3.5,-,N/A,,Clear,250,2013-06-12 07:44:00
3:53 AM,59.0,55.9,90,29.86,5.0,Calm,Calm,-,N/A,,Clear,0,2013-06-12 07:53:00
4:53 AM,61.0,57.9,90,29.88,5.0,WSW,4.6,-,N/A,,Clear,250,2013-06-12 08:53:00
5:53 AM,60.1,57.0,90,29.90,3.0,Calm,Calm,-,N/A,,Clear,0,2013-06-12 09:53:00
6:53 AM,63.0,59.0,87,29.89,4.0,Calm,Calm,-,N/A,,Clear,0,2013-06-12 10:53:00
7:53 AM,66.9,61.0,81,29.89,5.0,Calm,Calm,-,N/A,,Haze,0,2013-06-12 11:53:00
8:53 AM,71.1,63.0,75,29.89,7.0,Calm,Calm,-,N/A,,Clear,0,2013-06-12 12:53:00
9:53 AM,73.9,64.0,71,29.89,9.0,Calm,Calm,-,N/A,,Clear,0,2013-06-12 13:53:00
10:53 AM,75.0,64.0,69,29.91,10.0,Calm,Calm,-,N/A,,Clear,0,2013-06-12 14:53:00
11:53 AM,75.0,64.0,69,29.89,10.0,SE,3.5,-,N/A,,Clear,130,2013-06-12 15:53:00
12:53 PM,75.9,63.0,64,29.81,10.0,ESE,9.2,-,N/A,,Clear,120,2013-06-12 16:53:00
1:53 PM,77.0,64.0,64,29.88,10.0,WSW,10.4,-,N/A,,Partly Cloudy,250,2013-06-12 17:53:00
2:53 PM,75.0,64.0,69,29.82,10.0,SSE,4.6,-,N/A,,Mostly Cloudy,150,2013-06-12 18:53:00
3:53 PM,75.0,64.0,69,29.86,10.0,WSW,8.1,-,N/A,,Clear,250,2013-06-12 19:53:00
4:53 PM,75.0,64.0,69,29.83,10.0,Calm,Calm,-,0.00,,Mostly Cloudy,0,2013-06-12 20:53:00
5:53 PM,73.9,64.9,73,29.82,5.0,Calm,Calm,-,0.00,Rain,Light Rain,0,2013-06-12 21:53:00
6:53 PM,73.9,66.0,76,29.81,9.0,Calm,Calm,-,0.00,,Mostly Cloudy,0,2013-06-12 22:53:00
7:53 PM,71.1,66.0,84,29.78,5.0,South,4.6,-,0.01,Rain,Light Rain,170,2013-06-12 23:53:00
8:53 PM,71.1,66.0,84,29.74,5.0,East,6.9,-,0.01,,Haze,80,2013-06-13 00:53:00
9:53 PM,69.1,64.9,87,29.75,5.0,South,4.6,-,N/A,,Mostly Cloudy,190,2013-06-13 01:53:00
10:53 PM,69.1,64.9,87,29.68,4.0,ESE,4.6,-,N/A,,Mostly Cloudy,110,2013-06-13 02:53:00
11:41 PM,69.8,64.4,83,29.73,4.0,West,5.8,-,0.00,Rain-Thunderstorm,Light Rain,280,2013-06-13 03:41:00
11:48 PM,69.8,66.2,88,29.70,3.0,NNE,8.1,-,0.02,Rain-Thunderstorm,Thunderstorms and Rain,30,2013-06-13 03:48:00
11:53 PM,69.1,64.9,87,29.68,2.5,NE,11.5,-,0.04,Rain-Thunderstorm,Thunderstorms and Rain,40,2013-06-13 03:53:00